Location: Bretagne
(43.8474°N, 0.4650°W)
Time: 14:32:58
(UTC+00:00)

COSMO-SKYMED 1 - Pass Details

Date: 15 January 2026
Orbit: 577 x 579 km, 97.9° (Epoch: 18 February)

Event Time Altitude Azimuth Distance (km) Brightness Sun altitude
Exits shadow 18:59:42 14° 357° (N) 1,629 4.6 -22.9°
Maximum altitude 19:02:56 45° 288° (WNW) 790 3.4 -23.5°
Drops below altitude 10° 19:06:51 10° 215° (SW) 1,886 5.6 -24.2°
Sets 19:09:03 0° 210° (SSW) 2,780 6.4 -24.6°
